DMSP 5D-2 F13 DEB, 40407

Orbit data source: Space-Track

DMSP 5D-2 F13 DEB, 40407 is space debris in SSO originally from a launch on Fri, 24 Mar 1995 UTC launched from the Air Force Western Test Range (AFWTR). Debris objects in space refer to the collection of defunct objects orbiting the Earth. Examples of debris include non-operational satellites, rocket bodies, and fragments generated from explosions, collisions, or faulty payload assembly.

Loading next visibility...
Identifier
40407, 1995-015U
Orbit
SSO
Country
Flag of USUS
Related business
Manufacturer
Unknown
Mission
Spacecraft
Bus & Motor
Unknown
Mass
Unknown
Launch date (UTC)
1995-03-24 (31 years ago)
Launch vehicle
Unknown
Launch site
Air Force Western Test Range (AFWTR)
Object type
Payload
Rocket body
Debris
Shape & HBR
Unknown shape, 0.1 m
Radar Cross Section
Medium (>0.1 m² and <1 m²)

Expand to show TLE details & history
Last TLE update: 2 days ago

TLE from 2 days ago
0 DMSP 5D-2 F13 DEB
1 40407U 95015U   26171.26048536  .00000144  00000-0  92611-4 0  9998
2 40407  98.7994 185.9474 0006979 136.1633 224.0097 14.17661813584958
Epoch: 2026-06-20T06:15Z
TLE epoch observation values (Epoch: 2026-06-20T06:15:05.935Z)
Latitude
0.00002°
Longitude
-176.30499°
Altitude
839.802 km
Speed
7.431 km/s
True Right ascension
12h 23m 47s
True Declination
0° 00' 00"
Sunlit
Object was in daylight at epoch
Visualization orbit readout
Latitude
Unknown
Longitude
Unknown
Altitude
Unknown
Speed
Unknown
Apparent Right ascension
Unknown
Apparent Declination
Unknown
Sunlit
N/A
Visualization observer readout
Local Sidereal Time
16:21:46
Azimuth
Unknown
Elevation
Unknown
Doppler factor
Unknown
Orbital elements
Apogee altitude
835.468 km
Perigee altitude
825.406 km
Semi-major axis
7,208.574 km
Eccentricity
0.0007
Inclination
98.7994°
RAAN
185.9474°
Arg. of periapsis
136.1633°
True anomaly
223.95417°
Mean anomaly
224.0097°
Eccentric anomaly
223.98193°
Mean motion
3.54625 °/min
Orbital period
101.52 mins
BSTAR
0.000092611
Loading maneuver chart data...
Computing Atmospheric mass density...

Documentation

Showing up to 5 results
|